| time (UTC) | temp F | wind direction | speed MPH | gust MPH | rain 1hr in | rain 24hr in | rain mn in | humidity % | barometer mb |
| 20260507185526 | 63 | 301 | 3.0 | 4.0 | 0.00 | 0.21 | 0.21 | 68 | 1016.9 |
| 20260507184516 | 64 | 278 | 4.0 | 7.0 | 0.00 | 0.21 | 0.21 | 62 | 1016.9 |
| 20260507183628 | 65 | 324 | 4.0 | 7.0 | 0.00 | 0.21 | 0.21 | 62 | 1016.9 |
| 20260507182557 | 64 | 327 | 4.0 | 8.0 | 0.00 | 0.21 | 0.21 | 63 | 1016.8 |
| 20260507181547 | 65 | 321 | 4.0 | 6.0 | 0.00 | 0.21 | 0.21 | 65 | 1016.8 |
| 20260507180558 | 65 | 287 | 5.0 | 8.0 | 0.00 | 0.21 | 0.21 | 64 | 1017.0 |
| 20260507175527 | 65 | 299 | 3.0 | 8.0 | 0.00 | 0.21 | 0.21 | 63 | 1016.9 |
| 20260507174517 | 66 | 310 | 3.0 | 4.0 | 0.00 | 0.22 | 0.21 | 63 | 1017.0 |
| 20260507173648 | 66 | 286 | 3.0 | 4.0 | 0.00 | 0.22 | 0.21 | 62 | 1016.9 |
| 20260507172558 | 66 | 284 | 3.0 | 4.0 | 0.00 | 0.22 | 0.21 | 61 | 1016.9 |
| 20260507171548 | 66 | 295 | 3.0 | 6.0 | 0.00 | 0.22 | 0.21 | 61 | 1016.9 |
| 20260507170558 | 67 | 280 | 3.0 | 6.0 | 0.00 | 0.22 | 0.21 | 61 | 1016.9 |
| 20260507165549 | 67 | 304 | 5.0 | 8.0 | 0.00 | 0.22 | 0.21 | 61 | 1016.8 |
| 20260507164519 | 67 | 267 | 4.0 | 7.0 | 0.00 | 0.22 | 0.21 | 62 | 1017.0 |
| 20260507163609 | 67 | 288 | 4.0 | 7.0 | 0.00 | 0.22 | 0.21 | 62 | 1016.8 |
| 20260507162559 | 67 | 326 | 3.0 | 6.0 | 0.00 | 0.22 | 0.21 | 63 | 1016.7 |
| 20260507161549 | 67 | 308 | 4.0 | 7.0 | 0.00 | 0.22 | 0.21 | 63 | 1016.8 |
| 20260507160540 | 68 | 326 | 4.0 | 7.0 | 0.00 | 0.22 | 0.21 | 63 | 1016.7 |
| 20260507155550 | 68 | 322 | 3.0 | 6.0 | 0.00 | 0.22 | 0.21 | 64 | 1016.8 |
| 20260507154519 | 68 | 316 | 4.0 | 7.0 | 0.00 | 0.22 | 0.21 | 64 | 1016.8 |
| 20260507153610 | 67 | 303 | 4.0 | 7.0 | 0.00 | 0.22 | 0.21 | 65 | 1016.9 |
| 20260507152600 | 68 | 291 | 4.0 | 8.0 | 0.00 | 0.22 | 0.21 | 64 | 1016.8 |
| 20260507151550 | 68 | 314 | 3.0 | 7.0 | 0.00 | 0.22 | 0.21 | 65 | 1017.0 |
| 20260507150540 | 68 | 310 | 4.0 | 7.0 | 0.00 | 0.22 | 0.21 | 66 | 1016.8 |
| 20260507145530 | 68 | 305 | 3.0 | 7.0 | 0.00 | 0.22 | 0.21 | 65 | 1016.9 |
| 20260507144520 | 68 | 298 | 2.0 | 4.0 | 0.00 | 0.22 | 0.21 | 66 | 1017.0 |
| 20260507143611 | 68 | 318 | 2.0 | 10.0 | 0.00 | 0.22 | 0.21 | 65 | 1017.0 |
| 20260507142601 | 68 | 301 | 5.0 | 10.0 | 0.00 | 0.22 | 0.21 | 67 | 1017.0 |
| 20260507141551 | 69 | 340 | 3.0 | 8.0 | 0.00 | 0.22 | 0.21 | 66 | 1017.3 |
| 20260507140602 | 68 | 320 | 2.0 | 4.0 | 0.00 | 0.22 | 0.21 | 66 | 1017.5 |
| 20260507135531 | 67 | 287 | 1.0 | 6.0 | 0.00 | 0.22 | 0.21 | 67 | 1017.8 |
| 20260507134521 | 68 | 296 | 2.0 | 3.0 | 0.00 | 0.22 | 0.21 | 67 | 1017.9 |
| 20260507133612 | 69 | 343 | 2.0 | 6.0 | 0.00 | 0.22 | 0.21 | 66 | 1018.1 |
| 20260507132622 | 70 | 109 | 1.0 | 3.0 | 0.00 | 0.22 | 0.21 | 60 | 1018.1 |
| 20260507131552 | 69 | 78 | 0.0 | 3.0 | 0.00 | 0.22 | 0.21 | 62 | 1018.1 |
| 20260507130542 | 69 | 312 | 0.0 | 3.0 | 0.00 | 0.22 | 0.21 | 61 | 1018.1 |
| 20260507125533 | 69 | 105 | 1.0 | 2.0 | 0.00 | 0.22 | 0.21 | 61 | 1018.2 |
| 20260507124522 | 68 | 344 | 2.0 | 4.0 | 0.00 | 0.22 | 0.21 | 64 | 1018.3 |
| 20260507123613 | 68 | 299 | 1.0 | 3.0 | 0.00 | 0.22 | 0.21 | 63 | 1018.4 |
| 20260507122603 | 70 | 61 | 0.0 | 1.0 | 0.00 | 0.22 | 0.21 | 61 | 1018.4 |
| 20260507121553 | 68 | 133 | 0.0 | 1.0 | 0.00 | 0.22 | 0.21 | 65 | 1018.6 |
| 20260507120543 | 67 | 293 | 1.0 | 6.0 | 0.00 | 0.22 | 0.21 | 69 | 1018.5 |
| 20260507115533 | 67 | 306 | 2.0 | 4.0 | 0.00 | 0.22 | 0.21 | 71 | 1018.6 |
| 20260507114523 | 67 | 338 | 1.0 | 3.0 | 0.00 | 0.22 | 0.21 | 71 | 1018.6 |
| 20260507113614 | 67 | 230 | 2.0 | 6.0 | 0.00 | 0.22 | 0.21 | 72 | 1018.8 |
| 20260507112604 | 66 | 345 | 2.0 | 6.0 | 0.00 | 0.22 | 0.21 | 73 | 1018.7 |
| 20260507111554 | 67 | 112 | 0.0 | 2.0 | 0.00 | 0.22 | 0.21 | 72 | 1018.9 |
| 20260507110545 | 65 | 91 | 1.0 | 3.0 | 0.00 | 0.22 | 0.21 | 75 | 1018.8 |
| 20260507105534 | 65 | 329 | 4.0 | 7.0 | 0.00 | 0.22 | 0.21 | 75 | 1018.9 |
| 20260507104524 | 65 | 290 | 4.0 | 6.0 | 0.00 | 0.22 | 0.21 | 75 | 1019.0 |
| 20260507103635 | 64 | 330 | 1.0 | 3.0 | 0.00 | 0.22 | 0.21 | 76 | 1019.0 |
| 20260507102605 | 65 | 288 | 2.0 | 4.0 | 0.00 | 0.22 | 0.21 | 75 | 1019.2 |
| 20260507101615 | 64 | 356 | 0.0 | 2.0 | 0.00 | 0.22 | 0.21 | 76 | 1019.3 |
| 20260507100545 | 63 | 295 | 3.0 | 6.0 | 0.00 | 0.22 | 0.21 | 77 | 1019.2 |
| 20260507095536 | 64 | 90 | 1.0 | 2.0 | 0.00 | 0.22 | 0.21 | 76 | 1019.2 |
| 20260507094546 | 64 | 300 | 3.0 | 4.0 | 0.00 | 0.22 | 0.21 | 76 | 1019.3 |
| 20260507093516 | 64 | 292 | 1.0 | 3.0 | 0.00 | 0.22 | 0.21 | 75 | 1019.2 |
| 20260507092606 | 65 | 121 | 0.0 | 1.0 | 0.00 | 0.22 | 0.21 | 74 | 1019.0 |
| 20260507091556 | 63 | 150 | 0.0 | 2.0 | 0.00 | 0.22 | 0.21 | 77 | 1019.1 |
| 20260507090606 | 61 | 5 | 1.0 | 3.0 | 0.00 | 0.22 | 0.21 | 79 | 1019.0 |
| 20260507085537 | 60 | 312 | 2.0 | 4.0 | 0.00 | 0.22 | 0.21 | 80 | 1019.0 |
| 20260507084527 | 60 | 302 | 3.0 | 6.0 | 0.00 | 0.22 | 0.21 | 80 | 1019.1 |
| 20260507083517 | 59 | 303 | 2.0 | 6.0 | 0.00 | 0.22 | 0.21 | 80 | 1019.1 |
| 20260507082608 | 59 | 297 | 2.0 | 4.0 | 0.00 | 0.22 | 0.21 | 80 | 1019.2 |
| 20260507081558 | 59 | 301 | 2.0 | 4.0 | 0.00 | 0.22 | 0.21 | 79 | 1019.3 |
| 20260507080547 | 58 | 297 | 2.0 | 3.0 | 0.00 | 0.22 | 0.21 | 80 | 1019.4 |
| 20260507075618 | 57 | 312 | 1.0 | 3.0 | 0.00 | 0.22 | 0.21 | 82 | 1019.5 |
| 20260507074528 | 57 | 278 | 1.0 | 3.0 | 0.00 | 0.22 | 0.21 | 82 | 1019.4 |
| 20260507073518 | 57 | 301 | 1.0 | 3.0 | 0.00 | 0.22 | 0.21 | 84 | 1019.3 |
| 20260507072608 | 56 | 307 | 1.0 | 3.0 | 0.00 | 0.22 | 0.21 | 85 | 1019.5 |
| 20260507071559 | 56 | 257 | 0.0 | 2.0 | 0.00 | 0.22 | 0.21 | 86 | 1019.4 |
| 20260507070608 | 55 | 306 | 2.0 | 2.0 | 0.00 | 0.22 | 0.21 | 87 | 1019.4 |
| 20260507065539 | 55 | 290 | 2.0 | 3.0 | 0.00 | 0.22 | 0.21 | 87 | 1019.2 |
| 20260507064529 | 56 | 330 | 2.0 | 3.0 | 0.00 | 0.22 | 0.21 | 87 | 1019.0 |
| 20260507063539 | 57 | 305 | 2.0 | 3.0 | 0.00 | 0.22 | 0.21 | 85 | 1018.9 |
| 20260507062609 | 56 | 143 | 3.0 | 7.0 | 0.00 | 0.22 | 0.21 | 84 | 1018.8 |
| 20260507061559 | 55 | 154 | 3.0 | 6.0 | 0.00 | 0.23 | 0.21 | 85 | 1018.7 |
| 20260507060548 | 55 | 149 | 3.0 | 6.0 | 0.00 | 0.23 | 0.21 | 87 | 1018.8 |
| 20260507055539 | 55 | 147 | 4.0 | 6.0 | 0.00 | 0.24 | 0.21 | 88 | 1018.6 |
| 20260507054531 | 55 | 148 | 2.0 | 3.0 | 0.00 | 0.24 | 0.21 | 87 | 1018.7 |
| 20260507053519 | 55 | 150 | 3.0 | 4.0 | 0.00 | 0.25 | 0.21 | 86 | 1018.8 |
| 20260507052610 | 55 | 153 | 3.0 | 4.0 | 0.00 | 0.25 | 0.21 | 86 | 1018.8 |
| 20260507051600 | 54 | 150 | 2.0 | 3.0 | 0.00 | 0.25 | 0.21 | 86 | 1018.7 |
| 20260507050550 | 54 | 148 | 3.0 | 4.0 | 0.00 | 0.26 | 0.21 | 86 | 1018.6 |
| 20260507045540 | 54 | 151 | 2.0 | 4.0 | 0.00 | 0.26 | 0.21 | 85 | 1018.6 |
| 20260507044530 | 54 | 157 | 2.0 | 3.0 | 0.00 | 0.26 | 0.21 | 85 | 1018.6 |
| 20260507043541 | 53 | 155 | 2.0 | 4.0 | 0.00 | 0.26 | 0.21 | 87 | 1018.6 |
| 20260507042611 | 53 | 150 | 4.0 | 6.0 | 0.00 | 0.26 | 0.21 | 87 | 1018.7 |
| 20260507041601 | 53 | 0.0 | 0.0 | 0.01 | 0.26 | 0.21 | 89 | 1018.7 | |
| 20260507040612 | 53 | 0.0 | 0.0 | 0.01 | 0.26 | 0.21 | 88 | 1018.7 | |
| 20260507035542 | 53 | 142 | 3.0 | 4.0 | 0.01 | 0.26 | 0.21 | 89 | 1018.4 |
| 20260507034532 | 53 | 159 | 2.0 | 4.0 | 0.02 | 0.26 | 0.21 | 89 | 1018.3 |
| 20260507033521 | 53 | 154 | 1.0 | 3.0 | 0.03 | 0.26 | 0.21 | 89 | 1018.3 |
| 20260507032632 | 52 | 167 | 5.0 | 8.0 | 0.04 | 0.26 | 0.21 | 90 | 1018.2 |
| 20260507031622 | 52 | 148 | 3.0 | 7.0 | 0.04 | 0.25 | 0.20 | 91 | 1018.4 |
| 20260507030551 | 53 | 148 | 1.0 | 3.0 | 0.05 | 0.25 | 0.20 | 91 | 1018.6 |
| 20260507025543 | 53 | 0.0 | 0.0 | 0.06 | 0.25 | 0.20 | 91 | 1018.6 | |
| 20260507024553 | 53 | 0.0 | 0.0 | 0.06 | 0.24 | 0.19 | 90 | 1018.6 | |
| 20260507023522 | 53 | 0.0 | 3.0 | 0.06 | 0.23 | 0.18 | 90 | 1018.6 | |
| 20260507022613 | 53 | 191 | 1.0 | 3.0 | 0.08 | 0.22 | 0.17 | 90 | 1018.4 |
| 20260507021603 | 53 | 163 | 1.0 | 4.0 | 0.10 | 0.21 | 0.16 | 91 | 1018.5 |
| 20260507020554 | 53 | 0.0 | 0.0 | 0.10 | 0.21 | 0.15 | 91 | 1018.5 | |
| 20260507015543 | 53 | 0.0 | 0.0 | 0.10 | 0.20 | 0.14 | 90 | 1018.5 | |
| 20260507014533 | 53 | 0.0 | 0.0 | 0.09 | 0.19 | 0.13 | 90 | 1018.6 | |
| 20260507013523 | 53 | 0.0 | 0.0 | 0.08 | 0.18 | 0.12 | 90 | 1018.6 | |
| 20260507012614 | 53 | 0.0 | 2.0 | 0.06 | 0.15 | 0.09 | 90 | 1018.6 | |
| 20260507011604 | 53 | 155 | 2.0 | 4.0 | 0.04 | 0.12 | 0.06 | 90 | 1018.4 |
| 20260507010554 | 52 | 153 | 5.0 | 8.0 | 0.04 | 0.11 | 0.05 | 90 | 1018.3 |
| 20260507005544 | 52 | 145 | 7.0 | 13.0 | 0.03 | 0.10 | 0.04 | 90 | 1018.4 |
| 20260507004534 | 52 | 150 | 8.0 | 13.0 | 0.03 | 0.10 | 0.04 | 90 | 1018.4 |
| 20260507003524 | 53 | 153 | 6.0 | 11.0 | 0.03 | 0.10 | 0.04 | 89 | 1018.5 |
| 20260507002655 | 53 | 160 | 6.0 | 13.0 | 0.02 | 0.09 | 0.03 | 89 | 1018.5 |
| 20260507001625 | 53 | 143 | 7.0 | 15.0 | 0.01 | 0.08 | 0.02 | 88 | 1018.6 |
| 20260507000555 | 54 | 152 | 5.0 | 14.0 | 0.00 | 0.07 | 0.01 | 86 | 1018.6 |
| 20260506235545 | 54 | 156 | 7.0 | 14.0 | 0.00 | 0.07 | 0.01 | 85 | 1018.4 |
| 20260506234535 | 55 | 136 | 5.0 | 14.0 | 0.01 | 0.07 | 0.01 | 83 | 1018.4 |
| 20260506233545 | 55 | 138 | 5.0 | 16.0 | 0.01 | 0.07 | 0.01 | 83 | 1018.2 |
| 20260506232515 | 55 | 155 | 6.0 | 15.0 | 0.01 | 0.07 | 0.01 | 82 | 1018.4 |
| 20260506231626 | 55 | 159 | 8.0 | 18.0 | 0.01 | 0.07 | 0.01 | 83 | 1018.4 |
| 20260506230616 | 55 | 162 | 5.0 | 14.0 | 0.01 | 0.07 | 0.01 | 83 | 1018.4 |
| 20260506225606 | 55 | 152 | 8.0 | 17.0 | 0.01 | 0.07 | 0.01 | 82 | 1018.6 |
| 20260506224617 | 55 | 149 | 5.0 | 21.0 | 0.00 | 0.06 | 0.00 | 82 | 1018.6 |
| 20260506223526 | 55 | 137 | 6.0 | 16.0 | 0.00 | 0.06 | 0.00 | 83 | 1018.7 |
| 20260506222516 | 55 | 130 | 4.0 | 14.0 | 0.00 | 0.06 | 0.00 | 83 | 1018.9 |
| 20260506221607 | 55 | 145 | 7.0 | 17.0 | 0.00 | 0.06 | 0.00 | 83 | 1018.7 |
| 20260506220557 | 55 | 152 | 4.0 | 15.0 | 0.00 | 0.06 | 0.00 | 82 | 1018.8 |
| 20260506215547 | 56 | 152 | 7.0 | 15.0 | 0.00 | 0.06 | 0.06 | 80 | 1018.8 |
| 20260506214537 | 57 | 153 | 7.0 | 16.0 | 0.00 | 0.06 | 0.06 | 78 | 1018.8 |
| 20260506213528 | 57 | 154 | 8.0 | 16.0 | 0.00 | 0.06 | 0.06 | 77 | 1018.6 |
| 20260506212517 | 57 | 159 | 5.0 | 16.0 | 0.00 | 0.06 | 0.06 | 78 | 1018.7 |
| 20260506211608 | 56 | 148 | 5.0 | 11.0 | 0.00 | 0.06 | 0.06 | 81 | 1018.7 |
| 20260506210639 | 56 | 165 | 3.0 | 8.0 | 0.00 | 0.06 | 0.06 | 83 | 1018.8 |
| 20260506205549 | 56 | 129 | 3.0 | 8.0 | 0.00 | 0.06 | 0.06 | 84 | 1018.9 |
| 20260506204558 | 56 | 160 | 2.0 | 9.0 | 0.00 | 0.06 | 0.06 | 84 | 1019.1 |
| 20260506203528 | 56 | 155 | 2.0 | 9.0 | 0.00 | 0.06 | 0.06 | 84 | 1019.3 |
| 20260506202518 | 56 | 158 | 2.0 | 7.0 | 0.00 | 0.06 | 0.06 | 84 | 1019.2 |
| 20260506201629 | 56 | 153 | 2.0 | 9.0 | 0.00 | 0.06 | 0.06 | 84 | 1019.2 |
| 20260506200559 | 56 | 135 | 4.0 | 9.0 | 0.00 | 0.06 | 0.06 | 84 | 1019.0 |
| 20260506195549 | 57 | 144 | 3.0 | 7.0 | 0.00 | 0.06 | 0.06 | 83 | 1019.3 |
| 20260506194540 | 57 | 148 | 1.0 | 7.0 | 0.00 | 0.06 | 0.06 | 83 | 1019.2 |
| 20260506193550 | 57 | 169 | 2.0 | 7.0 | 0.00 | 0.06 | 0.06 | 83 | 1019.1 |
| 20260506192539 | 57 | 119 | 2.0 | 7.0 | 0.00 | 0.06 | 0.06 | 82 | 1018.8 |
| 20260506191612 | 57 | 138 | 2.0 | 8.0 | 0.00 | 0.06 | 0.06 | 82 | 1018.8 |
| 20260506190600 | 57 | 136 | 1.0 | 8.0 | 0.00 | 0.06 | 0.06 | 82 | 1018.7 |